• In Hungary
  • List of Countries
  • For 7 days
  • Water Temperature
  • Satellite Maps
  • Weather Map
  • News
  • Weather Widgets
  • user-avatar
    Login

    Hourly Weather Klimantino

    Today, 20 August, Monday

    Time Temperature Precipitation Wind Pressure Humidity
    00:00 +17°C° 0 mm 2 mps 750 mmHg 71%
    01:00 +17°C° 0 mm 2 mps 750 mmHg 72%
    02:00 +17°C° 0 mm 2 mps 749 mmHg 73%
    03:00 +17°C° 0 mm 3 mps 749 mmHg 73%
    04:00 +16°C° 0 mm 3 mps 749 mmHg 74%
    05:00 +16°C° 0 mm 3 mps 749 mmHg 75%
    06:00 +16°C° 0 mm 3 mps 749 mmHg 76%
    07:00 +18°C° 0 mm 3 mps 749 mmHg 70%
    08:00 +20°C° 0 mm 3 mps 749 mmHg 65%
    09:00 +22°C° 0 mm 3 mps 749 mmHg 60%
    10:00 +23°C° 0 mm 4 mps 749 mmHg 55%
    11:00 +26°C° 0 mm 4 mps 749 mmHg 51%
    12:00 +27°C° 0 mm 5 mps 749 mmHg 46%
    13:00 +27°C° 0 mm 5 mps 748 mmHg 46%
    14:00 +27°C° 0 mm 5 mps 748 mmHg 46%
    15:00 +28°C° 0 mm 5 mps 748 mmHg 46%
    16:00 +27°C° 0.1 mm 4 mps 747 mmHg 50%
    17:00 +26°C° 0.1 mm 4 mps 747 mmHg 54%
    18:00 +26°C° 0.1 mm 3 mps 747 mmHg 58%
    19:00 +24°C° 0 mm 3 mps 747 mmHg 63%
    20:00 +21°C° 0 mm 3 mps 747 mmHg 69%
    21:00 +20°C° 0 mm 2 mps 747 mmHg 75%
    22:00 +19°C° 0 mm 2 mps 746 mmHg 76%
    23:00 +19°C° 0 mm 2 mps 746 mmHg 78%

    Tomorrow, 21 August, Tuesday

    Time Temperature Precipitation Wind Pressure Humidity
    00:00 +18°C° 0 mm 2 mps 746 mmHg 80%
    01:00 +18°C° 0 mm 3 mps 746 mmHg 81%
    02:00 +18°C° 0 mm 3 mps 746 mmHg 82%
    03:00 +18°C° 0 mm 3 mps 745 mmHg 82%
    04:00 +18°C° 0 mm 3 mps 745 mmHg 84%
    05:00 +17°C° 0 mm 3 mps 745 mmHg 85%
    06:00 +17°C° 0 mm 3 mps 745 mmHg 86%
    07:00 +19°C° 0 mm 4 mps 744 mmHg 79%
    08:00 +21°C° 0 mm 5 mps 744 mmHg 72%
    09:00 +23°C° 0 mm 6 mps 744 mmHg 65%
    10:00 +24°C° 0 mm 6 mps 743 mmHg 60%
    11:00 +27°C° 0 mm 7 mps 743 mmHg 56%
    12:00 +28°C° 0 mm 7 mps 743 mmHg 51%
    13:00 +28°C° 0.3 mm 8 mps 742 mmHg 52%
    14:00 +28°C° 0.3 mm 8 mps 742 mmHg 53%
    15:00 +28°C° 0.3 mm 8 mps 741 mmHg 54%
    16:00 +26°C° 1.6 mm 8 mps 741 mmHg 62%
    17:00 +23°C° 1.6 mm 7 mps 741 mmHg 70%
    18:00 +22°C° 1.6 mm 6 mps 741 mmHg 78%
    19:00 +20°C° 0.5 mm 6 mps 741 mmHg 80%
    20:00 +19°C° 0.5 mm 5 mps 742 mmHg 83%
    21:00 +18°C° 0.5 mm 4 mps 742 mmHg 85%
    22:00 +17°C° 0 mm 3 mps 743 mmHg 85%
    23:00 +16°C° 0 mm 3 mps 743 mmHg 85%

    Day after tomorrow, 22 August, Wednesday

    Time Temperature Precipitation Wind Pressure Humidity
    00:00 +13°C° 0 mm 3 mps 743 mmHg 85%
    01:00 +13°C° 0 mm 3 mps 744 mmHg 86%
    02:00 +12°C° 0 mm 3 mps 744 mmHg 86%
    03:00 +11°C° 0 mm 3 mps 745 mmHg 87%
    04:00 +11°C° 0 mm 3 mps 745 mmHg 87%
    05:00 +11°C° 0 mm 3 mps 745 mmHg 88%
    06:00 +11°C° 0 mm 4 mps 746 mmHg 88%
    07:00 +12°C° 0 mm 4 mps 746 mmHg 81%
    08:00 +14°C° 0 mm 5 mps 746 mmHg 73%
    09:00 +15°C° 0 mm 5 mps 746 mmHg 65%
    10:00 +16°C° 0 mm 6 mps 747 mmHg 59%
    11:00 +17°C° 0 mm 6 mps 747 mmHg 52%
    12:00 +20°C° 0 mm 6 mps 747 mmHg 46%
    13:00 +20°C° 0 mm 6 mps 747 mmHg 45%
    14:00 +20°C° 0 mm 6 mps 747 mmHg 44%
    15:00 +20°C° 0 mm 6 mps 747 mmHg 44%
    16:00 +20°C° 0 mm 6 mps 748 mmHg 47%
    17:00 +19°C° 0 mm 5 mps 748 mmHg 50%
    18:00 +18°C° 0 mm 4 mps 748 mmHg 53%
    19:00 +15°C° 0 mm 4 mps 749 mmHg 57%
    20:00 +14°C° 0 mm 3 mps 749 mmHg 61%
    21:00 +12°C° 0 mm 3 mps 750 mmHg 65%
    22:00 +11°C° 0 mm 3 mps 750 mmHg 67%
    23:00 +11°C° 0 mm 3 mps 751 mmHg 69%

    23 August, Thursday

    Time Temperature Precipitation Wind Pressure Humidity
    00:00 +10°C° 0 mm 2 mps 751 mmHg 71%
    01:00 +10°C° 0 mm 2 mps 751 mmHg 72%
    02:00 +9°C° 0 mm 2 mps 752 mmHg 73%
    03:00 +9°C° 0 mm 2 mps 752 mmHg 74%
    04:00 +9°C° 0 mm 2 mps 752 mmHg 75%
    05:00 +8°C° 0 mm 2 mps 752 mmHg 76%
    06:00 +8°C° 0 mm 2 mps 753 mmHg 77%
    07:00 +10°C° 0 mm 2 mps 753 mmHg 69%
    08:00 +14°C° 0 mm 2 mps 753 mmHg 62%
    09:00 +16°C° 0 mm 2 mps 753 mmHg 54%
    10:00 +17°C° 0 mm 2 mps 753 mmHg 50%
    11:00 +18°C° 0 mm 3 mps 753 mmHg 45%
    12:00 +19°C° 0 mm 3 mps 753 mmHg 40%
    13:00 +20°C° 0 mm 3 mps 753 mmHg 39%
    14:00 +20°C° 0 mm 3 mps 753 mmHg 39%
    15:00 +21°C° 0 mm 3 mps 753 mmHg 38%
    16:00 +20°C° 0 mm 3 mps 752 mmHg 42%
    17:00 +20°C° 0 mm 2 mps 752 mmHg 46%
    18:00 +19°C° 0 mm 2 mps 752 mmHg 50%
    19:00 +18°C° 0 mm 2 mps 752 mmHg 55%
    20:00 +16°C° 0 mm 2 mps 752 mmHg 59%
    21:00 +14°C° 0 mm 2 mps 752 mmHg 64%
    22:00 +14°C° 0 mm 2 mps 752 mmHg 66%
    23:00 +13°C° 0 mm 2 mps 753 mmHg 67%

    24 August, Friday

    Time Temperature Precipitation Wind Pressure Humidity
    00:00 +13°C° 0 mm 2 mps 753 mmHg 69%
    01:00 +12°C° 0 mm 2 mps 753 mmHg 70%
    02:00 +12°C° 0 mm 2 mps 753 mmHg 72%
    03:00 +12°C° 0 mm 2 mps 753 mmHg 73%
    04:00 +12°C° 0 mm 1 mps 753 mmHg 74%
    05:00 +11°C° 0 mm 1 mps 753 mmHg 74%
    06:00 +11°C° 0 mm 1 mps 753 mmHg 75%
    07:00 +14°C° 0 mm 1 mps 753 mmHg 68%
    08:00 +16°C° 0 mm 1 mps 753 mmHg 61%
    09:00 +19°C° 0 mm 1 mps 753 mmHg 54%
    10:00 +19°C° 0 mm 2 mps 753 mmHg 50%
    11:00 +21°C° 0 mm 2 mps 753 mmHg 46%
    12:00 +23°C° 0 mm 2 mps 753 mmHg 42%
    13:00 +23°C° 0 mm 2 mps 752 mmHg 41%
    14:00 +24°C° 0 mm 2 mps 752 mmHg 39%
    15:00 +24°C° 0 mm 2 mps 752 mmHg 38%
    16:00 +24°C° 0 mm 2 mps 752 mmHg 42%
    17:00 +23°C° 0 mm 1 mps 751 mmHg 45%
    18:00 +23°C° 0 mm 1 mps 751 mmHg 49%
    19:00 +21°C° 0 mm 1 mps 751 mmHg 53%
    20:00 +19°C° 0 mm 1 mps 751 mmHg 57%
    21:00 +16°C° 0 mm 1 mps 751 mmHg 60%
    22:00 +15°C° 0 mm 1 mps 751 mmHg 62%
    23:00 +15°C° 0 mm 1 mps 751 mmHg 63%

    25 August, Saturday

    Time Temperature Precipitation Wind Pressure Humidity
    00:00 +14°C° 0 mm 1 mps 752 mmHg 65%
    01:00 +14°C° 0 mm 1 mps 752 mmHg 66%
    02:00 +14°C° 0 mm 1 mps 751 mmHg 67%
    03:00 +13°C° 0 mm 1 mps 751 mmHg 68%
    04:00 +13°C° 0 mm 1 mps 752 mmHg 69%
    05:00 +13°C° 0 mm 1 mps 752 mmHg 69%
    06:00 +13°C° 0 mm 1 mps 752 mmHg 70%
    07:00 +15°C° 0 mm 1 mps 752 mmHg 64%
    08:00 +18°C° 0 mm 1 mps 752 mmHg 57%
    09:00 +20°C° 0 mm 2 mps 752 mmHg 50%
    10:00 +21°C° 0 mm 2 mps 752 mmHg 46%
    11:00 +23°C° 0 mm 2 mps 751 mmHg 42%
    12:00 +25°C° 0 mm 2 mps 751 mmHg 38%
    13:00 +25°C° 0 mm 2 mps 751 mmHg 37%
    14:00 +26°C° 0 mm 2 mps 751 mmHg 36%
    15:00 +26°C° 0 mm 2 mps 750 mmHg 35%
    16:00 +25°C° 0 mm 2 mps 750 mmHg 39%
    17:00 +25°C° 0 mm 1 mps 750 mmHg 42%
    18:00 +24°C° 0 mm 1 mps 750 mmHg 46%
    19:00 +22°C° 0 mm 1 mps 750 mmHg 50%
    20:00 +20°C° 0 mm 1 mps 750 mmHg 53%
    21:00 +18°C° 0 mm 1 mps 749 mmHg 57%
    22:00 +18°C° 0 mm 1 mps 750 mmHg 58%
    23:00 +16°C° 0 mm 1 mps 750 mmHg 60%
    Show more